CZ-4C DEB (44212 NORAD) Tracking and Keplerian Element Data

This shows tracking and keplerian element data for the satellite.

Feedback or suggestion? Click here.




ElementValue
Catalog44212
NameCZ-4C DEB
Epoch Orbit386
Epoch Day145.94108376
Epoch Year2019
RAAN153.2147
Inclination97.4628
Eccentricity0.0008917
Argument of Perigee219.2168
Mean Anonmoly140.8445
Mean Motion15.19654781
Decay Rate1.099E-05
L11 44212U 19024F 19145.94108376 .00001099 00000-0 54720-4 0 9998
L22 44212 97.4628 153.2147 0008917 219.2168 140.8445 15.19654781 3868

Live tracking and technical data element details for CZ-4C DEB (NORAD 44212). CZ-4C DEB can be tracked NOW for your location showing map with azimuth and elevation plus other details from your city location.

Track the satellite on the map from your city or location and see movement details for azimuth, elevation, latitude, longitude, range, height, and movement on the map or in text.







IsCatalogInMostPopularTable: catalog: 44212, numindb: 7
Update: records affected: 1



GetName: 44212 CZ-4C DEB

Hit Count: updated at: Sun, 26 May 2019 08:04:47 GMT